Year,Month,Day,Hour,Minute,Value (Times are PST for windgust in km/hr)
2008,02,05,00,00,8.10
2008,02,05,00,01,9.60
2008,02,05,00,02,9.60
2008,02,05,00,03,14.50
2008,02,05,00,04,8.10
2008,02,05,00,05,20.90
2008,02,05,00,06,22.50
2008,02,05,00,07,6.40
2008,02,05,00,08,11.30
2008,02,05,00,09,9.60
2008,02,05,00,10,14.50
2008,02,05,00,11,9.60
2008,02,05,00,12,20.90
2008,02,05,00,13,8.10
2008,02,05,00,14,14.50
2008,02,05,00,15,8.10
2008,02,05,00,16,20.90
2008,02,05,00,17,16.10
2008,02,05,00,18,20.90
2008,02,05,00,19,9.60
2008,02,05,00,20,8.10
2008,02,05,00,21,9.60
2008,02,05,00,22,4.80
2008,02,05,00,23,9.60
2008,02,05,00,24,14.50
2008,02,05,00,25,14.50
2008,02,05,00,26,8.10
2008,02,05,00,27,4.80
2008,02,05,00,28,17.70
2008,02,05,00,29,22.50
2008,02,05,00,30,17.70
2008,02,05,00,31,11.30
2008,02,05,00,32,19.30
2008,02,05,00,33,14.50
2008,02,05,00,34,8.10
2008,02,05,00,35,19.30
2008,02,05,00,36,11.30
2008,02,05,00,37,8.10
2008,02,05,00,38,3.20
2008,02,05,00,39,11.30
2008,02,05,00,40,9.60
2008,02,05,00,41,17.70
2008,02,05,00,42,9.60
2008,02,05,00,43,4.80
2008,02,05,00,44,14.50
2008,02,05,00,45,9.60
2008,02,05,00,46,6.40
2008,02,05,00,47,8.10
2008,02,05,00,48,9.60
2008,02,05,00,49,14.50
2008,02,05,00,50,25.70
2008,02,05,00,51,11.30
2008,02,05,00,52,6.40
2008,02,05,00,53,17.70
2008,02,05,00,54,22.50
2008,02,05,00,55,22.50
2008,02,05,00,56,6.40
2008,02,05,00,57,16.10
2008,02,05,00,58,6.40
2008,02,05,00,59,8.10
2008,02,05,01,00,3.20
2008,02,05,01,01,4.80
2008,02,05,01,02,9.60
2008,02,05,01,03,14.50
2008,02,05,01,04,4.80
2008,02,05,01,05,16.10
2008,02,05,01,06,4.80
2008,02,05,01,07,6.40
2008,02,05,01,08,16.10
2008,02,05,01,09,19.30
2008,02,05,01,10,14.50
2008,02,05,01,11,16.10
2008,02,05,01,12,22.50
2008,02,05,01,13,19.30
2008,02,05,01,14,8.10
2008,02,05,01,15,9.60
2008,02,05,01,16,12.90
2008,02,05,01,17,16.10
2008,02,05,01,18,9.60
2008,02,05,01,19,11.30
2008,02,05,01,20,9.60
2008,02,05,01,21,16.10
2008,02,05,01,22,6.40
2008,02,05,01,23,8.10
2008,02,05,01,24,17.70
2008,02,05,01,25,11.30
2008,02,05,01,26,17.70
2008,02,05,01,27,9.60
2008,02,05,01,28,16.10
2008,02,05,01,29,16.10
2008,02,05,01,30,8.10
2008,02,05,01,31,25.70
2008,02,05,01,32,4.80
2008,02,05,01,33,8.10
2008,02,05,01,34,19.30
2008,02,05,01,35,9.60
2008,02,05,01,36,8.10
2008,02,05,01,37,4.80
2008,02,05,01,38,9.60
2008,02,05,01,39,11.30
2008,02,05,01,40,11.30
2008,02,05,01,41,22.50
2008,02,05,01,42,9.60
2008,02,05,01,43,9.60
2008,02,05,01,44,17.70
2008,02,05,01,45,25.70
2008,02,05,01,46,8.10
2008,02,05,01,47,20.90
2008,02,05,01,48,24.20
2008,02,05,01,49,14.50
2008,02,05,01,50,11.30
2008,02,05,01,51,4.80
2008,02,05,01,52,11.30
2008,02,05,01,53,9.60
2008,02,05,01,54,19.30
2008,02,05,01,55,4.80
2008,02,05,01,56,19.30
2008,02,05,01,57,3.20
2008,02,05,01,58,19.30
2008,02,05,01,59,9.60
2008,02,05,02,00,11.30
2008,02,05,02,01,11.30
2008,02,05,02,02,20.90
2008,02,05,02,03,6.40
2008,02,05,02,04,9.60
2008,02,05,02,05,24.20
2008,02,05,02,06,9.60
2008,02,05,02,07,9.60
2008,02,05,02,08,11.30
2008,02,05,02,09,19.30
2008,02,05,02,10,9.60
2008,02,05,02,11,16.10
2008,02,05,02,12,17.70
2008,02,05,02,13,16.10
2008,02,05,02,14,12.90
2008,02,05,02,15,17.70
2008,02,05,02,16,24.20
2008,02,05,02,17,20.90
2008,02,05,02,18,11.30
2008,02,05,02,19,19.30
2008,02,05,02,20,11.30
2008,02,05,02,21,20.90
2008,02,05,02,22,25.70
2008,02,05,02,23,17.70
2008,02,05,02,24,14.50
2008,02,05,02,25,9.60
2008,02,05,02,26,19.30
2008,02,05,02,27,8.10
2008,02,05,02,28,24.20
2008,02,05,02,29,11.30
2008,02,05,02,30,20.90
2008,02,05,02,31,9.60
2008,02,05,02,32,11.30
2008,02,05,02,33,9.60
2008,02,05,02,34,8.10
2008,02,05,02,35,27.40
2008,02,05,02,36,14.50
2008,02,05,02,37,20.90
2008,02,05,02,38,25.70
2008,02,05,02,39,16.10
2008,02,05,02,40,12.90
2008,02,05,02,41,19.30
2008,02,05,02,42,20.90
2008,02,05,02,43,17.70
2008,02,05,02,44,14.50
2008,02,05,02,45,19.30
2008,02,05,02,46,20.90
2008,02,05,02,47,8.10
2008,02,05,02,48,9.60
2008,02,05,02,49,17.70
2008,02,05,02,50,11.30
2008,02,05,02,51,35.40
2008,02,05,02,52,19.30
2008,02,05,02,53,9.60
2008,02,05,02,54,29.00
2008,02,05,02,55,19.30
2008,02,05,02,56,16.10
2008,02,05,02,57,19.30
2008,02,05,02,58,14.50
2008,02,05,02,59,20.90
2008,02,05,03,00,22.50
2008,02,05,03,01,19.30
2008,02,05,03,02,20.90
2008,02,05,03,03,11.30
2008,02,05,03,04,11.30
2008,02,05,03,05,16.10
2008,02,05,03,06,16.10
2008,02,05,03,07,20.90
2008,02,05,03,08,17.70
2008,02,05,03,09,3.20
2008,02,05,03,10,9.60
2008,02,05,03,11,11.30
2008,02,05,03,12,14.50
2008,02,05,03,13,22.50
2008,02,05,03,14,11.30
2008,02,05,03,15,8.10
2008,02,05,03,16,11.30
2008,02,05,03,17,6.40
2008,02,05,03,18,8.10
2008,02,05,03,19,6.40
2008,02,05,03,20,14.50
2008,02,05,03,21,8.10
2008,02,05,03,22,16.10
2008,02,05,03,23,11.30
2008,02,05,03,24,20.90
2008,02,05,03,25,16.10
2008,02,05,03,26,14.50
2008,02,05,03,27,6.40
2008,02,05,03,28,19.30
2008,02,05,03,29,17.70
2008,02,05,03,30,14.50
2008,02,05,03,31,11.30
2008,02,05,03,32,11.30
2008,02,05,03,33,19.30
2008,02,05,03,34,11.30
2008,02,05,03,35,8.10
2008,02,05,03,36,11.30
2008,02,05,03,37,16.10
2008,02,05,03,38,12.90
2008,02,05,03,39,16.10
2008,02,05,03,40,20.90
2008,02,05,03,41,16.10
2008,02,05,03,42,11.30
2008,02,05,03,43,14.50
2008,02,05,03,44,14.50
2008,02,05,03,45,20.90
2008,02,05,03,46,16.10
2008,02,05,03,47,16.10
2008,02,05,03,48,6.40
2008,02,05,03,49,22.50
2008,02,05,03,50,11.30
2008,02,05,03,51,25.70
2008,02,05,03,52,9.60
2008,02,05,03,53,22.50
2008,02,05,03,54,19.30
2008,02,05,03,55,17.70
2008,02,05,03,56,17.70
2008,02,05,03,57,17.70
2008,02,05,03,58,20.90
2008,02,05,03,59,19.30
2008,02,05,04,00,20.90
2008,02,05,04,01,20.90
2008,02,05,04,02,22.50
2008,02,05,04,03,14.50
2008,02,05,04,04,16.10
2008,02,05,04,05,11.30
2008,02,05,04,06,12.90
2008,02,05,04,07,11.30
2008,02,05,04,08,19.30
2008,02,05,04,09,11.30
2008,02,05,04,10,11.30
2008,02,05,04,11,20.90
2008,02,05,04,12,14.50
2008,02,05,04,13,14.50
2008,02,05,04,14,20.90
2008,02,05,04,15,8.10
2008,02,05,04,16,22.50
2008,02,05,04,17,9.60
2008,02,05,04,18,9.60
2008,02,05,04,19,8.10
2008,02,05,04,20,9.60
2008,02,05,04,21,8.10
2008,02,05,04,22,6.40
2008,02,05,04,23,6.40
2008,02,05,04,24,8.10
2008,02,05,04,25,16.10
2008,02,05,04,26,9.60
2008,02,05,04,27,16.10
2008,02,05,04,28,25.70
2008,02,05,04,29,9.60
2008,02,05,04,30,14.50
2008,02,05,04,31,22.50
2008,02,05,04,32,19.30
2008,02,05,04,33,11.30
2008,02,05,04,34,16.10
2008,02,05,04,35,9.60
2008,02,05,04,36,8.10
2008,02,05,04,37,29.00
2008,02,05,04,38,19.30
2008,02,05,04,39,19.30
2008,02,05,04,40,16.10
2008,02,05,04,41,9.60
2008,02,05,04,42,16.10
2008,02,05,04,43,9.60
2008,02,05,04,44,14.50
2008,02,05,04,45,16.10
2008,02,05,04,46,11.30
2008,02,05,04,47,16.10
2008,02,05,04,48,8.10
2008,02,05,04,49,16.10
2008,02,05,04,50,6.40
2008,02,05,04,51,4.80
2008,02,05,04,52,6.40
2008,02,05,04,53,9.60
2008,02,05,04,54,19.30
2008,02,05,04,55,22.50
2008,02,05,04,56,22.50
2008,02,05,04,57,11.30
2008,02,05,04,58,16.10
2008,02,05,04,59,17.70
2008,02,05,05,00,11.30
2008,02,05,05,01,14.50
2008,02,05,05,02,8.10
2008,02,05,05,03,9.60
2008,02,05,05,04,16.10
2008,02,05,05,05,11.30
2008,02,05,05,06,16.10
2008,02,05,05,07,27.40
2008,02,05,05,08,16.10
2008,02,05,05,09,4.80
2008,02,05,05,10,8.10
2008,02,05,05,11,19.30
2008,02,05,05,12,6.40
2008,02,05,05,13,9.60
2008,02,05,05,14,12.90
2008,02,05,05,15,17.70
2008,02,05,05,16,14.50
2008,02,05,05,17,11.30
2008,02,05,05,18,9.60
2008,02,05,05,19,11.30
2008,02,05,05,20,14.50
2008,02,05,05,21,9.60
2008,02,05,05,22,6.40
2008,02,05,05,23,14.50
2008,02,05,05,24,8.10
2008,02,05,05,25,16.10
2008,02,05,05,26,16.10
2008,02,05,05,27,14.50
2008,02,05,05,28,16.10
2008,02,05,05,29,16.10
2008,02,05,05,30,16.10
2008,02,05,05,31,11.30
2008,02,05,05,32,11.30
2008,02,05,05,33,8.10
2008,02,05,05,34,9.60
2008,02,05,05,35,11.30
2008,02,05,05,36,8.10
2008,02,05,05,37,4.80
2008,02,05,05,38,14.50
2008,02,05,05,39,14.50
2008,02,05,05,40,14.50
2008,02,05,05,41,6.40
2008,02,05,05,42,8.10
2008,02,05,05,43,16.10
2008,02,05,05,44,16.10
2008,02,05,05,45,22.50
2008,02,05,05,46,3.20
2008,02,05,05,47,4.80
2008,02,05,05,48,14.50
2008,02,05,05,49,9.60
2008,02,05,05,50,14.50
2008,02,05,05,51,19.30
2008,02,05,05,52,6.40
2008,02,05,05,53,11.30
2008,02,05,05,54,22.50
2008,02,05,05,55,12.90
2008,02,05,05,56,25.70
2008,02,05,05,57,19.30
2008,02,05,05,58,25.70
2008,02,05,05,59,11.30
2008,02,05,06,00,33.80
2008,02,05,06,01,16.10
2008,02,05,06,02,20.90
2008,02,05,06,03,32.20
2008,02,05,06,04,17.70
2008,02,05,06,05,25.70
2008,02,05,06,06,24.20
2008,02,05,06,07,4.80
2008,02,05,06,08,24.20
2008,02,05,06,09,27.40
2008,02,05,06,10,14.50
2008,02,05,06,11,16.10
2008,02,05,06,12,22.50
2008,02,05,06,13,8.10
2008,02,05,06,14,27.40
2008,02,05,06,15,32.20
2008,02,05,06,16,32.20
2008,02,05,06,17,24.20
2008,02,05,06,18,22.50
2008,02,05,06,19,17.70
2008,02,05,06,20,11.30
2008,02,05,06,21,6.40
2008,02,05,06,22,9.60
2008,02,05,06,23,17.70
2008,02,05,06,24,27.40
2008,02,05,06,25,29.00
2008,02,05,06,26,16.10
2008,02,05,06,27,22.50
2008,02,05,06,28,19.30
2008,02,05,06,29,22.50
2008,02,05,06,30,17.70
2008,02,05,06,31,24.20
2008,02,05,06,32,24.20
2008,02,05,06,33,29.00
2008,02,05,06,34,35.40
2008,02,05,06,35,30.60
2008,02,05,06,36,11.30
2008,02,05,06,37,20.90
2008,02,05,06,38,11.30
2008,02,05,06,39,32.20
2008,02,05,06,40,16.10
2008,02,05,06,41,17.70
2008,02,05,06,42,24.20
2008,02,05,06,43,27.40
2008,02,05,06,44,22.50
2008,02,05,06,45,20.90
2008,02,05,06,46,11.30
2008,02,05,06,47,17.70
2008,02,05,06,48,24.20
2008,02,05,06,49,33.80
2008,02,05,06,50,16.10
2008,02,05,06,51,9.60
2008,02,05,06,52,17.70
2008,02,05,06,53,27.40
2008,02,05,06,54,11.30
2008,02,05,06,55,14.50
2008,02,05,06,56,16.10
2008,02,05,06,57,24.20
2008,02,05,06,58,22.50
2008,02,05,06,59,24.20
2008,02,05,07,00,19.30
2008,02,05,07,01,30.60
2008,02,05,07,02,32.20
2008,02,05,07,03,19.30
2008,02,05,07,04,19.30
2008,02,05,07,05,14.50
2008,02,05,07,06,25.70
2008,02,05,07,07,27.40
2008,02,05,07,08,32.20
2008,02,05,07,09,16.10
2008,02,05,07,10,22.50
2008,02,05,07,11,16.10
2008,02,05,07,12,16.10
2008,02,05,07,13,9.60
2008,02,05,07,14,17.70
2008,02,05,07,15,24.20
2008,02,05,07,16,6.40
2008,02,05,07,17,14.50
2008,02,05,07,18,9.60
2008,02,05,07,19,16.10
2008,02,05,07,20,25.70
2008,02,05,07,21,22.50
2008,02,05,07,22,17.70
2008,02,05,07,23,17.70
2008,02,05,07,24,20.90
2008,02,05,07,25,17.70
2008,02,05,07,26,16.10
2008,02,05,07,27,17.70
2008,02,05,07,28,22.50
2008,02,05,07,29,12.90
2008,02,05,07,30,17.70
2008,02,05,07,31,9.60
2008,02,05,07,32,12.90
2008,02,05,07,33,11.30
2008,02,05,07,34,20.90
2008,02,05,07,35,20.90
2008,02,05,07,36,4.80
2008,02,05,07,37,22.50
2008,02,05,07,38,19.30
2008,02,05,07,39,25.70
2008,02,05,07,40,33.80
2008,02,05,07,41,19.30
2008,02,05,07,42,19.30
2008,02,05,07,43,11.30
2008,02,05,07,44,8.10
2008,02,05,07,45,16.10
2008,02,05,07,46,14.50
2008,02,05,07,47,11.30
2008,02,05,07,48,14.50
2008,02,05,07,49,14.50
2008,02,05,07,50,11.30
2008,02,05,07,51,19.30
2008,02,05,07,52,9.60
2008,02,05,07,53,11.30
2008,02,05,07,54,8.10
2008,02,05,07,55,8.10
2008,02,05,07,56,8.10
2008,02,05,07,57,11.30
2008,02,05,07,58,9.60
2008,02,05,07,59,8.10
2008,02,05,08,00,19.30
2008,02,05,08,01,19.30
2008,02,05,08,02,17.70
2008,02,05,08,03,6.40
2008,02,05,08,04,17.70
2008,02,05,08,05,20.90
2008,02,05,08,06,20.90
2008,02,05,08,07,16.10
2008,02,05,08,08,33.80
2008,02,05,08,09,17.70
2008,02,05,08,10,25.70
2008,02,05,08,11,14.50
2008,02,05,08,12,32.20
2008,02,05,08,13,22.50
2008,02,05,08,14,30.60
2008,02,05,08,15,24.20
2008,02,05,08,16,37.00
2008,02,05,08,17,38.60
2008,02,05,08,18,16.10
2008,02,05,08,19,25.70
2008,02,05,08,20,22.50
2008,02,05,08,21,17.70
2008,02,05,08,22,19.30
2008,02,05,08,23,16.10
2008,02,05,08,24,38.60
2008,02,05,08,25,24.20
2008,02,05,08,26,25.70
2008,02,05,08,27,16.10
2008,02,05,08,28,27.40
2008,02,05,08,29,11.30
2008,02,05,08,30,25.70
2008,02,05,08,31,40.20
2008,02,05,08,32,33.80
2008,02,05,08,33,20.90
2008,02,05,08,34,20.90
2008,02,05,08,35,22.50
2008,02,05,08,36,27.40
2008,02,05,08,37,25.70
2008,02,05,08,38,22.50
2008,02,05,08,39,11.30
2008,02,05,08,40,33.80
2008,02,05,08,41,20.90
2008,02,05,08,42,14.50
2008,02,05,08,43,16.10
2008,02,05,08,44,11.30
2008,02,05,08,45,22.50
2008,02,05,08,46,8.10
2008,02,05,08,47,32.20
2008,02,05,08,48,30.60
2008,02,05,08,49,11.30
2008,02,05,08,50,17.70
2008,02,05,08,51,22.50
2008,02,05,08,52,19.30
2008,02,05,08,53,25.70
2008,02,05,08,54,16.10
2008,02,05,08,55,27.40
2008,02,05,08,56,12.90
2008,02,05,08,57,24.20
2008,02,05,08,58,30.60
2008,02,05,08,59,35.40
2008,02,05,09,00,30.60
2008,02,05,09,01,11.30
2008,02,05,09,02,17.70
2008,02,05,09,03,27.40
2008,02,05,09,04,20.90
2008,02,05,09,05,29.00
2008,02,05,09,06,16.10
2008,02,05,09,07,19.30
2008,02,05,09,08,24.20
2008,02,05,09,09,24.20
2008,02,05,09,10,17.70
2008,02,05,09,11,32.20
2008,02,05,09,12,33.80
2008,02,05,09,13,16.10
2008,02,05,09,14,16.10
2008,02,05,09,15,19.30
2008,02,05,09,16,22.50
2008,02,05,09,17,4.80
2008,02,05,09,18,9.60
2008,02,05,09,19,33.80
2008,02,05,09,20,22.50
2008,02,05,09,21,9.60
2008,02,05,09,22,11.30
2008,02,05,09,23,24.20
2008,02,05,09,24,19.30
2008,02,05,09,25,14.50
2008,02,05,09,26,16.10
2008,02,05,09,27,8.10
2008,02,05,09,28,27.40
2008,02,05,09,29,12.90
2008,02,05,09,30,22.50
2008,02,05,09,31,16.10
2008,02,05,09,32,17.70
2008,02,05,09,33,8.10
2008,02,05,09,34,4.80
2008,02,05,09,35,9.60
2008,02,05,09,36,14.50
2008,02,05,09,37,19.30
2008,02,05,09,38,19.30
2008,02,05,09,39,27.40
2008,02,05,09,40,16.10
2008,02,05,09,41,27.40
2008,02,05,09,42,17.70
2008,02,05,09,43,9.60
2008,02,05,09,44,9.60
2008,02,05,09,45,11.30
2008,02,05,09,46,8.10
2008,02,05,09,47,9.60
2008,02,05,09,48,25.70
2008,02,05,09,49,11.30
2008,02,05,09,50,19.30
2008,02,05,09,51,19.30
2008,02,05,09,52,9.60
2008,02,05,09,53,14.50
2008,02,05,09,54,12.90
2008,02,05,09,55,16.10
2008,02,05,09,56,20.90
2008,02,05,09,57,8.10
2008,02,05,09,58,8.10
2008,02,05,09,59,8.10
2008,02,05,10,00,12.90
2008,02,05,10,01,9.60
2008,02,05,10,02,6.40
2008,02,05,10,03,4.80
2008,02,05,10,04,9.60
2008,02,05,10,05,4.80
2008,02,05,10,06,8.10
2008,02,05,10,07,6.40
2008,02,05,10,08,4.80
2008,02,05,10,09,11.30
2008,02,05,10,10,8.10
2008,02,05,10,11,3.20
2008,02,05,10,12,9.60
2008,02,05,10,13,4.80
2008,02,05,10,14,9.60
2008,02,05,10,15,14.50
2008,02,05,10,16,14.50
2008,02,05,10,17,8.10
2008,02,05,10,18,17.70
2008,02,05,10,19,9.60
2008,02,05,10,20,19.30
2008,02,05,10,21,9.60
2008,02,05,10,22,8.10
2008,02,05,10,23,14.50
2008,02,05,10,24,9.60
2008,02,05,10,25,4.80
2008,02,05,10,26,11.30
2008,02,05,10,27,9.60
2008,02,05,10,28,3.20
2008,02,05,10,29,4.80
2008,02,05,10,30,4.80
2008,02,05,10,31,11.30
2008,02,05,10,32,6.40
2008,02,05,10,33,4.80
2008,02,05,10,34,8.10
2008,02,05,10,35,6.40
2008,02,05,10,36,8.10
2008,02,05,10,37,9.60
2008,02,05,10,38,8.10
2008,02,05,10,39,4.80
2008,02,05,10,40,6.40
2008,02,05,10,41,9.60
2008,02,05,10,42,9.60
2008,02,05,10,43,6.40
2008,02,05,10,44,16.10
2008,02,05,10,45,6.40
2008,02,05,10,46,19.30
2008,02,05,10,47,22.50
2008,02,05,10,48,9.60
2008,02,05,10,49,11.30
2008,02,05,10,50,11.30
2008,02,05,10,51,8.10
2008,02,05,10,52,4.80
2008,02,05,10,53,3.20
2008,02,05,10,54,6.40
2008,02,05,10,55,4.80
2008,02,05,10,56,1.60
2008,02,05,10,57,1.60
2008,02,05,10,58,6.40
2008,02,05,10,59,9.60
2008,02,05,11,00,3.20
2008,02,05,11,01,4.80
2008,02,05,11,02,4.80
2008,02,05,11,03,1.60
2008,02,05,11,04,4.80
2008,02,05,11,05,6.40
2008,02,05,11,06,11.30
2008,02,05,11,07,8.10
2008,02,05,11,08,4.80
2008,02,05,11,09,6.40
2008,02,05,11,10,8.10
2008,02,05,11,11,6.40
2008,02,05,11,12,8.10
2008,02,05,11,13,4.80
2008,02,05,11,14,3.20
2008,02,05,11,15,4.80
2008,02,05,11,16,6.40
2008,02,05,11,17,4.80
2008,02,05,11,18,4.80
2008,02,05,11,19,4.80
2008,02,05,11,20,4.80
2008,02,05,11,21,3.20
2008,02,05,11,22,1.60
2008,02,05,11,23,3.20
2008,02,05,11,24,6.40
2008,02,05,11,25,4.80
2008,02,05,11,26,4.80
2008,02,05,11,27,1.60
2008,02,05,11,28,3.20
2008,02,05,11,29,1.60
2008,02,05,11,30,3.20
2008,02,05,11,31,4.80
2008,02,05,11,32,4.80
2008,02,05,11,33,4.80
2008,02,05,11,34,3.20
2008,02,05,11,35,3.20
2008,02,05,11,36,1.60
2008,02,05,11,37,3.20
2008,02,05,11,38,4.80
2008,02,05,11,39,0.00
2008,02,05,11,40,3.20
2008,02,05,11,41,1.60
2008,02,05,11,42,1.60
2008,02,05,11,43,3.20
2008,02,05,11,44,3.20
2008,02,05,11,45,6.40
2008,02,05,11,46,4.80
2008,02,05,11,47,9.60
2008,02,05,11,48,8.10
2008,02,05,11,49,4.80
2008,02,05,11,50,3.20
2008,02,05,11,51,9.60
2008,02,05,11,52,9.60
2008,02,05,11,53,8.10
2008,02,05,11,54,4.80
2008,02,05,11,55,17.70
2008,02,05,11,56,9.60
2008,02,05,11,57,4.80
2008,02,05,11,58,6.40
2008,02,05,11,59,6.40
2008,02,05,12,00,6.40
2008,02,05,12,01,12.90
2008,02,05,12,02,14.50
2008,02,05,12,03,6.40
2008,02,05,12,04,6.40
2008,02,05,12,05,6.40
2008,02,05,12,06,8.10
2008,02,05,12,07,1.60
2008,02,05,12,08,22.50
2008,02,05,12,09,9.60
2008,02,05,12,10,11.30
2008,02,05,12,11,8.10
2008,02,05,12,12,4.80
2008,02,05,12,13,8.10
2008,02,05,12,14,6.40
2008,02,05,12,15,8.10
2008,02,05,12,16,6.40
2008,02,05,12,17,4.80
2008,02,05,12,18,4.80
2008,02,05,12,19,6.40
2008,02,05,12,20,3.20
2008,02,05,12,21,3.20
2008,02,05,12,22,8.10
2008,02,05,12,23,8.10
2008,02,05,12,24,6.40
2008,02,05,12,25,11.30
2008,02,05,12,26,14.50
2008,02,05,12,27,3.20
2008,02,05,12,28,9.60
2008,02,05,12,29,4.80
2008,02,05,12,30,4.80
2008,02,05,12,31,9.60
2008,02,05,12,32,6.40
2008,02,05,12,33,1.60
2008,02,05,12,34,3.20
2008,02,05,12,35,3.20
2008,02,05,12,36,6.40
2008,02,05,12,37,4.80
2008,02,05,12,38,3.20
2008,02,05,12,39,1.60
2008,02,05,12,40,3.20
2008,02,05,12,41,6.40
2008,02,05,12,42,4.80
2008,02,05,12,43,6.40
2008,02,05,12,44,3.20
2008,02,05,12,45,3.20
2008,02,05,12,46,3.20
2008,02,05,12,47,4.80
2008,02,05,12,48,4.80
2008,02,05,12,49,8.10
2008,02,05,12,50,8.10
2008,02,05,12,51,9.60
2008,02,05,12,52,6.40
2008,02,05,12,53,8.10
2008,02,05,12,54,8.10
2008,02,05,12,55,6.40
2008,02,05,12,56,3.20
2008,02,05,12,57,14.50
2008,02,05,12,58,6.40
2008,02,05,12,59,8.10
2008,02,05,13,00,8.10
2008,02,05,13,01,3.20
2008,02,05,13,02,3.20
2008,02,05,13,03,6.40
2008,02,05,13,04,8.10
2008,02,05,13,05,9.60
2008,02,05,13,06,6.40
2008,02,05,13,07,6.40
2008,02,05,13,08,8.10
2008,02,05,13,09,8.10
2008,02,05,13,10,4.80
2008,02,05,13,11,6.40
2008,02,05,13,12,6.40
2008,02,05,13,13,4.80
2008,02,05,13,14,3.20
2008,02,05,13,15,14.50
2008,02,05,13,16,9.60
2008,02,05,13,17,16.10
2008,02,05,13,18,9.60
2008,02,05,13,19,11.30
2008,02,05,13,20,8.10
2008,02,05,13,21,6.40
2008,02,05,13,22,9.60
2008,02,05,13,23,11.30
2008,02,05,13,24,8.10
2008,02,05,13,25,11.30
2008,02,05,13,26,12.90
2008,02,05,13,27,8.10
2008,02,05,13,28,11.30
2008,02,05,13,29,12.90
2008,02,05,13,30,16.10
2008,02,05,13,31,9.60
2008,02,05,13,32,16.10
2008,02,05,13,33,16.10
2008,02,05,13,34,8.10
2008,02,05,13,35,17.70
2008,02,05,13,36,17.70
2008,02,05,13,37,11.30
2008,02,05,13,38,20.90
2008,02,05,13,39,17.70
2008,02,05,13,40,8.10
2008,02,05,13,41,14.50
2008,02,05,13,42,9.60
2008,02,05,13,43,16.10
2008,02,05,13,44,9.60
2008,02,05,13,45,20.90
2008,02,05,13,46,16.10
2008,02,05,13,47,6.40
2008,02,05,13,48,4.80
2008,02,05,13,49,8.10
2008,02,05,13,50,9.60
2008,02,05,13,51,11.30
2008,02,05,13,52,19.30
2008,02,05,13,53,14.50
2008,02,05,13,54,14.50
2008,02,05,13,55,6.40
2008,02,05,13,56,11.30
2008,02,05,13,57,9.60
2008,02,05,13,58,17.70
2008,02,05,13,59,4.80
2008,02,05,14,00,9.60
2008,02,05,14,01,6.40
2008,02,05,14,02,9.60
2008,02,05,14,03,9.60
2008,02,05,14,04,6.40
2008,02,05,14,05,9.60
2008,02,05,14,06,8.10
2008,02,05,14,07,9.60
2008,02,05,14,08,6.40
2008,02,05,14,09,6.40
2008,02,05,14,10,8.10
2008,02,05,14,11,16.10
2008,02,05,14,12,19.30
2008,02,05,14,13,37.00
2008,02,05,14,14,40.20
2008,02,05,14,15,17.70
2008,02,05,14,16,9.60
2008,02,05,14,17,9.60
2008,02,05,14,18,33.80
2008,02,05,14,19,20.90
2008,02,05,14,20,20.90
2008,02,05,14,21,17.70
2008,02,05,14,22,19.30
2008,02,05,14,23,25.70
2008,02,05,14,24,32.20
2008,02,05,14,25,30.60
2008,02,05,14,26,24.20
2008,02,05,14,27,33.80
2008,02,05,14,28,38.60
2008,02,05,14,29,25.70
2008,02,05,14,30,22.50
2008,02,05,14,31,30.60
2008,02,05,14,32,30.60
2008,02,05,14,33,37.00
2008,02,05,14,34,37.00
2008,02,05,14,35,45.10
2008,02,05,14,36,29.00
2008,02,05,14,37,27.40
2008,02,05,14,38,41.80
2008,02,05,14,39,38.60
2008,02,05,14,40,38.60
2008,02,05,14,41,33.80
2008,02,05,14,42,25.70
2008,02,05,14,43,22.50
2008,02,05,14,44,35.40
2008,02,05,14,45,37.00
2008,02,05,14,46,38.60
2008,02,05,14,47,30.60
2008,02,05,14,48,41.80
2008,02,05,14,49,45.10
2008,02,05,14,50,37.00
2008,02,05,14,51,41.80
2008,02,05,14,52,32.20
2008,02,05,14,53,32.20
2008,02,05,14,54,29.00
2008,02,05,14,55,53.10
2008,02,05,14,56,53.10
2008,02,05,14,57,37.00
2008,02,05,14,58,35.40
2008,02,05,14,59,40.20
2008,02,05,15,00,35.40
2008,02,05,15,01,45.10
2008,02,05,15,02,38.60
2008,02,05,15,03,48.30
2008,02,05,15,04,46.70
2008,02,05,15,05,35.40
2008,02,05,15,06,46.70
2008,02,05,15,07,46.70
2008,02,05,15,08,33.80
2008,02,05,15,09,51.50
2008,02,05,15,10,38.60
2008,02,05,15,11,35.40
2008,02,05,15,12,45.10
2008,02,05,15,13,40.20
2008,02,05,15,14,37.00
2008,02,05,15,15,38.60
2008,02,05,15,16,35.40
2008,02,05,15,17,25.70
2008,02,05,15,18,32.20
2008,02,05,15,19,49.90
2008,02,05,15,20,30.60
2008,02,05,15,21,38.60
2008,02,05,15,22,38.60
2008,02,05,15,23,35.40
2008,02,05,15,24,38.60
2008,02,05,15,25,32.20
2008,02,05,15,26,35.40
2008,02,05,15,27,33.80
2008,02,05,15,28,35.40
2008,02,05,15,29,46.70
2008,02,05,15,30,30.60
2008,02,05,15,31,45.10
2008,02,05,15,32,35.40
2008,02,05,15,33,38.60
2008,02,05,15,34,29.00
2008,02,05,15,35,30.60
2008,02,05,15,36,32.20
2008,02,05,15,37,32.20
2008,02,05,15,38,32.20
2008,02,05,15,39,38.60
2008,02,05,15,40,27.40
2008,02,05,15,41,46.70
2008,02,05,15,42,29.00
2008,02,05,15,43,37.00
2008,02,05,15,44,38.60
2008,02,05,15,45,25.70
2008,02,05,15,46,35.40
2008,02,05,15,47,24.20
2008,02,05,15,48,30.60
2008,02,05,15,49,19.30
2008,02,05,15,50,25.70
2008,02,05,15,51,29.00
2008,02,05,15,52,25.70
2008,02,05,15,53,25.70
2008,02,05,15,54,29.00
2008,02,05,15,55,30.60
2008,02,05,15,56,25.70
2008,02,05,15,57,35.40
2008,02,05,15,58,24.20
2008,02,05,15,59,33.80
2008,02,05,16,00,24.20
2008,02,05,16,01,20.90
2008,02,05,16,02,24.20
2008,02,05,16,03,41.80
2008,02,05,16,04,40.20
2008,02,05,16,05,37.00
2008,02,05,16,06,33.80
2008,02,05,16,07,46.70
2008,02,05,16,08,38.60
2008,02,05,16,09,51.50
2008,02,05,16,10,30.60
2008,02,05,16,11,19.30
2008,02,05,16,12,27.40
2008,02,05,16,13,41.80
2008,02,05,16,14,45.10
2008,02,05,16,15,37.00
2008,02,05,16,16,45.10
2008,02,05,16,17,45.10
2008,02,05,16,18,30.60
2008,02,05,16,19,19.30
2008,02,05,16,20,33.80
2008,02,05,16,21,27.40
2008,02,05,16,22,29.00
2008,02,05,16,23,29.00
2008,02,05,16,24,48.30
2008,02,05,16,25,41.80
2008,02,05,16,26,35.40
2008,02,05,16,27,30.60
2008,02,05,16,28,37.00
2008,02,05,16,29,32.20
2008,02,05,16,30,27.40
2008,02,05,16,31,29.00
2008,02,05,16,32,24.20
2008,02,05,16,33,30.60
2008,02,05,16,34,33.80
2008,02,05,16,35,45.10
2008,02,05,16,36,30.60
2008,02,05,16,37,33.80
2008,02,05,16,38,27.40
2008,02,05,16,39,27.40
2008,02,05,16,40,27.40
2008,02,05,16,41,37.00
2008,02,05,16,42,33.80
2008,02,05,16,43,33.80
2008,02,05,16,44,29.00
2008,02,05,16,45,17.70
2008,02,05,16,46,38.60
2008,02,05,16,47,17.70
2008,02,05,16,48,14.50
2008,02,05,16,49,29.00
2008,02,05,16,50,40.20
2008,02,05,16,51,22.50
2008,02,05,16,52,24.20
2008,02,05,16,53,11.30
2008,02,05,16,54,35.40
2008,02,05,16,55,25.70
2008,02,05,16,56,20.90
2008,02,05,16,57,24.20
2008,02,05,16,58,24.20
2008,02,05,16,59,22.50
2008,02,05,17,00,20.90
2008,02,05,17,01,14.50
2008,02,05,17,02,16.10
2008,02,05,17,03,27.40
2008,02,05,17,04,22.50
2008,02,05,17,05,32.20
2008,02,05,17,06,16.10
2008,02,05,17,07,11.30
2008,02,05,17,08,22.50
2008,02,05,17,09,20.90
2008,02,05,17,10,20.90
2008,02,05,17,11,24.20
2008,02,05,17,12,24.20
2008,02,05,17,13,24.20
2008,02,05,17,14,24.20
2008,02,05,17,15,19.30
2008,02,05,17,16,20.90
2008,02,05,17,17,16.10
2008,02,05,17,18,29.00
2008,02,05,17,19,19.30
2008,02,05,17,20,24.20
2008,02,05,17,21,16.10
2008,02,05,17,22,14.50
2008,02,05,17,23,6.40
2008,02,05,17,24,16.10
2008,02,05,17,25,11.30
2008,02,05,17,26,9.60
2008,02,05,17,27,11.30
2008,02,05,17,28,9.60
2008,02,05,17,29,27.40
2008,02,05,17,30,20.90
2008,02,05,17,31,27.40
2008,02,05,17,32,17.70
2008,02,05,17,33,12.90
2008,02,05,17,34,9.60
2008,02,05,17,35,8.10